星链-30757 (STARLINK-30757 )

导读 | 星芒AI

STARLINK-30757 是 SpaceX Starlink 项目中的一颗低轨通信卫星,属于第三代 Starlink 卫星(v1.5)。该卫星于 2023 年发射,旨在为全球提供高速互联网服务。它运行在约 550 公里的轨道高度,具备先进通信技术和激光链路,以提升网络性能和减少延迟。作为 Starlink 卫星群的一部分,STARLINK-30757 有助于扩大覆盖范围,特别是在偏远和网络基础设施薄弱的地区。

基本信息
目录编号:
58131
目录名称:
STARLINK-30757
国际标识:
2023-162P
轨道中心:
EARTH
卫星名称:
星链-30757
卫星全名:
星链-30757 (STARLINK-30757 )
卫星状态:
在轨 (已飞行740 天)
发射日期:
2023-10-22 UTC
国别 :
美国 (US)
星等 :
--
轨道信息
数据来源 国际轨道数据
星历时间: 2025-10-30T20:40:30+0800
18小时前
查看轨道信息
半长轴: 6937.235km
偏心率: 0.0001209
轨道倾角: 43.003°
近地点辐角 275.990°
升交点赤经 120.061°
平近点角 84.080°
近地点: 558.261km
远地点: 559.939km
周期: 95.838分钟
每日圈数: 15.025301
详细信息
固有亮度:
5
最大亮度:
0.3
卫星平台:
Starlink v2.0 mini
覆盖范围:
全球
运营商:
太空探索技术公司
运营商所在国:
美国
制造商(研发单位):
太空探索技术公司
制造商所在国:
美国
使用方式:
暂无
卫星简介
星链(Starlink)计划是由太空探索技术公司(SpaceX)提出的一个巨型低轨卫星互联网星座项目,计划在2019年至2024年间在太空搭建由约1.2万颗卫星组成的“星链”网络,其中1584颗将部署在地球上空550千米处的近地轨道,并从2020年开始工作。该卫星仍在工作。
2D轨道图
3D轨道图
轨道高度分析图
轨道倾角分析图
轨道综合分析图
查看轨道综合分析图